Weather History for KHRI - May, 2014

Change the Weather History Date:

Friday, May 23, 2014

  Actual Average Record
Temperature  
Mean Temperature 68 °F -  
Max Temperature 86 °F 76 °F 101 °F (1951)
Min Temperature 53 °F 47 °F 30 °F (1964)
Cooling Degree Days 2    
Growing Degree Days 18 (Base 50)    
Moisture  
Dew Point 50 °F    
Average Humidity 54    
Maximum Humidity 80    
Minimum Humidity 33    
Precipitation  
Precipitation 0.00 in - - ()
Sea Level Pressure  
Sea Level Pressure 29.94 in    
Wind  
Wind Speed 9 mph (SW)    
Max Wind Speed 25 mph    
Max Gust Speed 37 mph    
Visibility 10 miles    
Events      
Averages and records for this station are not official NWS values.
T = Trace of Precipitation, MM = Missing Value Source: NWS Daily Summary

Daily Weather History Graph

Daily Weather History Graph

Search for Another Location

Airport or City:

Trip Planner

Search our weather history database for the weather conditions in past years. The results will help you decide how hot, cold, wet, or windy it might be!

Date:

Astronomy

May. 23, 2014 Rise Set
Actual Time 5:17 AM PDT 8:31 PM PDT
Civil Twilight 4:41 AM PDT 9:07 PM PDT
Nautical Twilight 3:54 AM PDT 9:54 PM PDT
Astronomical Twilight 2:56 AM PDT 10:53 PM PDT
Moon 2:31 AM PDT (5/23) 3:13 PM PDT (5/23)
Length of Visible Light 16h 26m
Length of Day
15h 14m
Waning Crescent, 26% of the Moon is Illuminated
May 23
Waning Crescent
May 28
New
Jun 5
First Quarter
Jun 12
Full
Jun 19
Last Quarter

Hourly Weather History & Observations

Time (PDT) Temp. Dew Point Humidity Pressure Visibility Wind Dir Wind Speed Gust Speed Precip Events Conditions
12:53 AM 55.9 °F 48.0 °F 75% 29.91 in 10.0 mi SE 3.5 mph - N/A   Clear
1:53 AM 54.0 °F 48.0 °F 80% 29.91 in 10.0 mi SE 4.6 mph - N/A   Clear
2:53 AM 53.1 °F 46.9 °F 80% 29.91 in 10.0 mi ESE 4.6 mph - N/A   Clear
3:53 AM 55.0 °F 48.0 °F 77% 29.91 in 10.0 mi SE 4.6 mph - N/A   Clear
4:53 AM 57.0 °F 48.0 °F 72% 29.91 in 10.0 mi SE 3.5 mph - N/A   Clear
5:53 AM 57.9 °F 48.0 °F 70% 29.91 in 10.0 mi Calm Calm - N/A   Clear
6:53 AM 63.0 °F 50.0 °F 63% 29.90 in 10.0 mi SSE 5.8 mph - N/A   Clear
8:53 AM 73.9 °F 51.1 °F 45% 29.90 in 10.0 mi SW 10.4 mph - N/A   Clear
9:53 AM 79.0 °F 50.0 °F 36% 29.90 in 10.0 mi WSW 11.5 mph - N/A   Clear
10:53 AM 82.0 °F 50.0 °F 33% 29.90 in 10.0 mi West 16.1 mph 23.0 mph N/A   Clear
11:53 AM 82.0 °F 51.1 °F 34% 29.91 in 10.0 mi West 17.3 mph 24.2 mph N/A   Partly Cloudy
12:53 PM 82.9 °F 51.1 °F 33% 29.92 in 10.0 mi West 15.0 mph 23.0 mph N/A   Scattered Clouds
1:53 PM 78.1 °F 52.0 °F 40% 29.95 in 10.0 mi WSW 20.7 mph 26.5 mph N/A   Mostly Cloudy
2:53 PM 78.1 °F 48.9 °F 36% 29.96 in 10.0 mi West 25.3 mph 36.8 mph N/A   Partly Cloudy
3:53 PM 73.9 °F 48.9 °F 41% 29.99 in 10.0 mi West 24.2 mph 32.2 mph N/A   Mostly Cloudy
4:53 PM 70.0 °F 50.0 °F 49% 29.99 in 10.0 mi WSW 15.0 mph 24.2 mph N/A   Overcast
5:53 PM 70.0 °F 51.1 °F 51% 29.99 in 10.0 mi SW 12.7 mph - N/A   Overcast
6:53 PM 69.1 °F 52.0 °F 54% 29.98 in 10.0 mi SSW 11.5 mph - N/A   Partly Cloudy
7:53 PM 68.0 °F 52.0 °F 56% 29.98 in 10.0 mi South 10.4 mph - N/A   Clear
8:53 PM 69.1 °F 50.0 °F 51% 29.98 in 10.0 mi WSW 12.7 mph - N/A   Overcast
10:53 PM 66.0 °F 51.1 °F 59% 29.99 in 10.0 mi WSW 11.5 mph 20.7 mph N/A   Overcast
11:53 PM 64.0 °F 51.1 °F 63% 30.01 in 10.0 mi WSW 11.5 mph - N/A   Mostly Cloudy